Tracking 29494 objects as of 7-Sep-2024
HD Live streaming from Space Station
objects crossing your sky now

IRIDIUM 36

Track IRIDIUM 36 now!
10-day predictions
IRIDIUM 36 is classified as:


NORAD ID: 24967
Int'l Code: 1997-056C
Perigee: 774.0 km
Apogee: 777.1 km
Inclination: 86.4 °
Period: 100.2 minutes
Semi major axis: 7146 km
RCS: 3.602 m2 (large)
Launch date: September 27, 1997
Source: United States (US)
Launch site: AIR FORCE WESTERN TEST RANGE (AFWTR)
Your satellite tracking list
Your tracking list is empty




NASA's NSSDC Master Catalog

Two Line Element Set (TLE):
1 24967U 97056C   24251.57422116  .00001490  00000-0  49630-3 0  9996
2 24967  86.3929 291.7024 0002138  96.5548 263.5893 14.37011799411625
Source of the keplerian elements: AFSPC